Powrót do katalogu

COSMOS 2278

AktywnyNawigacjaLEO
NORAD 23087·PAYLOAD·🇷🇺 Russia

Wystrzelony Apr 23, 1994 z Baikonur Cosmodrome

Loading…

Następne Przeloty (najbliższe 24 godziny)

TLE

ŚwieżeSource: Space-Track

Epoka: Sep 14, 2026, 22:09 UTC

1 23087U 94023A   26257.92319217  .00000376  00000-0  22094-3 0  9990
2 23087  71.0531 139.1760 0006919 102.2090 257.9808 14.14406296671566

Śledź COSMOS 2278 w czasie rzeczywistym z AllMySat

Download on the App Store